Regional Weather Roundup
Issued by NWS

Home | Current Version | Previous Version | Graphics & Text | Print | Product List | Glossary Off
Versions: 1 2 3 4 5 6 7 8 9 10 11 12 13 14 15 16 17 18 19 20 21 22 23 24 25 26 27 28 29 30 31 32 33 34 35 36 37 38 39 40 41 42 43 44 45 46 47 48 49 50

000
ASUS43 KTOP 020808
RWRKS

WEATHER ROUNDUP FOR KANSAS
NATIONAL WEATHER SERVICE GOODLAND KS
300 AM CDT WED SEP 02 2015

NOTE:  "FAIR" INDICATES FEW OR NO CLOUDS BELOW 12,000 FEET WITH NO
SIGNIFICANT WEATHER AND/OR OBSTRUCTIONS TO VISIBILITY.

KSZ001>006-013>018-027>032-041>047-020900-
NORTHWEST KANSAS

CITY           SKY/WX    TMP DP  RH WIND       PRES   REMARKS
GOODLAND       CLEAR     70  58  65 SW8       29.97F
HAYS           CLEAR     77  55  47 S12       29.94S
HILL CITY      PTCLDY    79  57  46 SW14G22   29.91F
RUSSELL        CLEAR     78  61  55 S15       29.92S
$$

KSZ061>065-074>080-084>089-020900-
SOUTHWEST KANSAS

CITY           SKY/WX    TMP DP  RH WIND       PRES   REMARKS
DODGE CITY     CLEAR     72  56  57 S12       29.99F
ELKHART          N/A     68  57  68 SW5         N/A
GARDEN CITY    CLEAR     68  56  65 S6        29.98F
GREAT BEND     CLEAR     77  61  57 S17       29.95F
LIBERAL        CLEAR     73  54  49 S13       30.01F
PRATT          CLEAR     75  59  57 MISG      30.00S
$$

KSZ066>073-081>083-090>101-020900-
SOUTHEAST KANSAS

CITY           SKY/WX    TMP DP  RH WIND       PRES   REMARKS
CHANUTE        CLEAR     71  67  87 S8        30.01S
COFFEYVILLE    CLEAR     71  67  87 S6        30.01S
HUTCHINSON     PTCLDY    77  64  64 S13       29.97F
MEDICINE LODGE   N/A     76  62  62 S6        29.98F
NEWTON         PTCLDY    75  61  60 S14       30.01S
PARSONS        FAIR      69  67  93 S3        30.02S
WICHITA INTL   MOCLDY    77  64  64 S10       29.98S
WICHITA JABRA  PTCLDY    75  64  68 S12       29.98F
WICHITA MCCONL MOCLDY    76  63  63 S15       29.98F
WINFIELD       CLEAR     74  64  71 S12       30.00F
$$

KSZ007>012-019>026-033>040-048>060-102>105-020900-
NORTHEAST KANSAS

CITY           SKY/WX    TMP DP  RH WIND       PRES   REMARKS
CONCORDIA      CLEAR     76  66  71 S17G25    29.90F
EMPORIA        PTCLDY    72  67  84 S14       29.97F
LAWRENCE       CLEAR     72  66  81 SE7       29.97F
MANHATTAN      PTCLDY    78  67  68 SW14G23   29.93F
MARYSVILLE     CLEAR    N/A N/A N/A S8        29.92F
OLATHE IND     CLEAR     71  66  84 S8        30.00F
OLATHE EXE     CLEAR     71  65  81 S6        29.99F
SALINA         PTCLDY    79  65  62 S16G25    29.93S
TOPEKA BILLARD CLEAR     76  67  73 S5        29.96F
TOPEKA FORBES  PTCLDY    76  67  73 S10       29.96F
$$



USA.gov is the U.S. government's official web portal to all federal, state and local government web resources and services.